Torna al catalogo

STARLINK-3276

AttivoComunicazioniVLEO
NORAD 50189·PAYLOAD·🇺🇸 United States

Lanciato Dec 18, 2021 da Vandenberg Space Force Base

Loading…

Prossimi Passaggi (prossime 24 ore)

TLE

AggiornatoSource: CelesTrak SupGP

Epoca: Sep 15, 2026, 00:57 UTC

1 50189C 21125AK  26258.04006944  .00067758  00000+0  31257-2 0  2584
2 50189  53.2135 108.4460 0002706  57.7051  55.5387 15.19688831    11

Traccia STARLINK-3276 in tempo reale con AllMySat

Download on the App Store